Location: Bon Acre
(42.6442°N, 73.5758°W)
Time: 02:24:40
(UTC+00:00)

SL-08 R/B - Pass Details

Date: 20 March 2026
Orbit: 946 x 992 km, 83.0° (Epoch: 13 April)

Event Time Altitude Azimuth Distance (km) Brightness Sun altitude
Rises 00:42:33 0° 171° (S) 3,610 7.2 -18.4°
Reaches altitude 10° 00:45:05 10° 166° (SSE) 2,665 6.5 -18.8°
Maximum altitude 00:50:57 53° 91° (E) 1,151 4.5 -19.8°
Drops below altitude 10° 00:56:51 10° 17° (NNE) 2,675 6.8 -20.9°
Sets 00:59:24 0° 13° (NNE) 3,626 7.6 -21.3°
